{"data":{"norad_id":64237,"intl_designator":"2025-119E","name":"STARLINK-11670 [DTC]","alt_names":[],"object_type":"PAYLOAD","status":"ACTIVE","operator":null,"country":"US","launch_date":"2025-06-03","launch_site_code":"AFETR","launch_vehicle":null,"mission":null,"orbit_class":"UNKNOWN","rcs_meters":null,"size_class":null,"mass_kg":null,"dimensions":null,"purposes":["comms"],"wikipedia_slug":null,"has_3d_model":false,"image_url":null,"decayed_at":null,"tle_current":{"epoch":"2026-09-20T15:34:50.518848Z","epoch_age_seconds":124694,"freshness":"FRESH","line1":"1 64237U 25119E   26263.64919582  .00036460  00000+0  28606-3 0  9996","line2":"2 64237  43.0009 114.2447 0002184 268.5375  91.5242 15.70866404 75909","mean_motion":15.70866404,"eccentricity":0.0002184,"inclination_deg":43.0009,"raan_deg":114.2447,"arg_perigee_deg":268.5375,"mean_anomaly_deg":91.5242,"bstar":0.00028606,"rev_number":7590,"period_min":91.669157627487,"perigee_km":354.9487678917,"apogee_km":357.89042221242,"semimajor_km":6734.5565950521,"source":"CELESTRAK","updated_at":"2026-09-21T09:00:35.276819Z"}}}